| time (UTC) | temp C | wind direction | speed KPH | gust KPH | rain 1hr cm | rain 24hr cm | rain mn cm | humidity % | barometer mb |
| 20260906131736 | 27 | 207 | 6.4 | 6.4 | 0.00 | 0.00 | 0.00 | 83 | 1024.4 |
| 20260906131230 | 27 | 210 | 3.2 | 4.8 | 0.00 | 0.00 | 0.00 | 85 | 1024.3 |
| 20260906130726 | 27 | 243 | 6.4 | 6.4 | 0.00 | 0.00 | 0.00 | 85 | 1024.2 |
| 20260906130221 | 27 | 217 | 6.4 | 6.4 | 0.00 | 0.00 | 0.00 | 86 | 1024.4 |
| 20260906125719 | 27 | 219 | 4.8 | 4.8 | 0.00 | 0.00 | 0.00 | 86 | 1024.4 |
| 20260906125217 | 26 | 191 | 1.6 | 6.4 | 0.00 | 0.00 | 0.00 | 88 | 1024.3 |
| 20260906124713 | 26 | 213 | 3.2 | 4.8 | 0.00 | 0.00 | 0.00 | 88 | 1024.3 |
| 20260906124209 | 26 | 236 | 1.6 | 4.8 | 0.00 | 0.00 | 0.00 | 89 | 1024.3 |
| 20260906123707 | 26 | 205 | 3.2 | 9.7 | 0.00 | 0.00 | 0.00 | 89 | 1024.2 |
| 20260906123202 | 26 | 203 | 3.2 | 4.8 | 0.00 | 0.00 | 0.00 | 90 | 1024.2 |
| 20260906122701 | 26 | 222 | 4.8 | 6.4 | 0.00 | 0.00 | 0.00 | 91 | 1024.0 |
| 20260906122157 | 25 | 205 | 1.6 | 3.2 | 0.00 | 0.00 | 0.00 | 92 | 1024.0 |
| 20260906121653 | 25 | 217 | 3.2 | 3.2 | 0.00 | 0.00 | 0.00 | 93 | 1024.1 |
| 20260906121149 | 25 | 209 | 1.6 | 4.8 | 0.00 | 0.00 | 0.00 | 94 | 1024.0 |
| 20260906120645 | 25 | 239 | 3.2 | 3.2 | 0.00 | 0.00 | 0.00 | 96 | 1024.0 |
| 20260906120142 | 24 | 213 | 0.0 | 1.6 | 0.00 | 0.00 | 0.00 | 98 | 1023.8 |
| 20260906115642 | 24 | 211 | 1.6 | 1.6 | 0.00 | 0.00 | 0.00 | 98 | 1024.0 |
| 20260906115138 | 23 | 210 | 0.0 | 1.6 | 0.00 | 0.00 | 0.00 | 98 | 1023.8 |
| 20260906114636 | 23 | 211 | 0.0 | 0.0 | 0.00 | 0.00 | 0.00 | 98 | 1023.9 |
| 20260906114131 | 23 | 211 | 0.0 | 1.6 | 0.00 | 0.00 | 0.00 | 98 | 1023.8 |
| 20260906113632 | 23 | 211 | 1.6 | 1.6 | 0.00 | 0.00 | 0.00 | 98 | 1023.8 |
| 20260906113126 | 23 | 211 | 1.6 | 1.6 | 0.00 | 0.00 | 0.00 | 98 | 1023.8 |
| 20260906112626 | 23 | 211 | 0.0 | 0.0 | 0.00 | 0.00 | 0.00 | 98 | 1023.8 |
| 20260906112123 | 23 | 211 | 0.0 | 0.0 | 0.00 | 0.00 | 0.00 | 98 | 1023.9 |
| 20260906111622 | 23 | 211 | 0.0 | 0.0 | 0.00 | 0.00 | 0.00 | 97 | 1023.7 |
| 20260906111117 | 23 | 211 | 0.0 | 0.0 | 0.00 | 0.00 | 0.00 | 97 | 1023.9 |
| 20260906110612 | 23 | 211 | 0.0 | 0.0 | 0.00 | 0.00 | 0.00 | 97 | 1023.6 |
| 20260906110112 | 23 | 211 | 0.0 | 3.2 | 0.00 | 0.00 | 0.00 | 97 | 1023.3 |
| 20260906105606 | 23 | 211 | 1.6 | 1.6 | 0.00 | 0.00 | 0.00 | 97 | 1023.6 |
| 20260906105102 | 23 | 211 | 1.6 | 1.6 | 0.00 | 0.00 | 0.00 | 97 | 1023.4 |
| 20260906104601 | 23 | 211 | 0.0 | 0.0 | 0.00 | 0.00 | 0.00 | 97 | 1023.4 |
| 20260906104055 | 23 | 210 | 0.0 | 1.6 | 0.00 | 0.00 | 0.00 | 97 | 1023.5 |
| 20260906103554 | 23 | 210 | 0.0 | 0.0 | 0.00 | 0.00 | 0.00 | 97 | 1023.2 |
| 20260906103050 | 23 | 210 | 1.6 | 1.6 | 0.00 | 0.00 | 0.00 | 97 | 1023.0 |
| 20260906102550 | 23 | 210 | 0.0 | 1.6 | 0.00 | 0.00 | 0.00 | 97 | 1023.3 |
| 20260906102045 | 24 | 210 | 0.0 | 1.6 | 0.00 | 0.00 | 0.00 | 96 | 1023.1 |
| 20260906101545 | 24 | 210 | 1.6 | 1.6 | 0.00 | 0.00 | 0.00 | 96 | 1023.1 |
| 20260906101039 | 24 | 210 | 1.6 | 1.6 | 0.00 | 0.00 | 0.00 | 96 | 1023.0 |
| 20260906100535 | 24 | 209 | 0.0 | 1.6 | 0.00 | 0.00 | 0.00 | 96 | 1023.1 |
| 20260906100036 | 24 | 209 | 0.0 | 1.6 | 0.00 | 0.00 | 0.00 | 96 | 1022.9 |
| 20260906095530 | 24 | 209 | 0.0 | 0.0 | 0.00 | 0.00 | 0.00 | 96 | 1023.1 |
| 20260906095026 | 24 | 209 | 1.6 | 1.6 | 0.00 | 0.00 | 0.00 | 96 | 1022.9 |
| 20260906094524 | 24 | 209 | 1.6 | 1.6 | 0.00 | 0.00 | 0.00 | 96 | 1022.9 |
| 20260906094020 | 24 | 209 | 0.0 | 1.6 | 0.00 | 0.00 | 0.00 | 96 | 1022.9 |
| 20260906093516 | 24 | 209 | 0.0 | 0.0 | 0.00 | 0.00 | 0.00 | 96 | 1022.7 |
| 20260906093017 | 24 | 209 | 1.6 | 1.6 | 0.00 | 0.00 | 0.00 | 96 | 1022.7 |
| 20260906092517 | 24 | 209 | 0.0 | 0.0 | 0.00 | 0.00 | 0.00 | 96 | 1022.8 |
| 20260906092012 | 24 | 209 | 1.6 | 3.2 | 0.00 | 0.00 | 0.00 | 96 | 1022.7 |
| 20260906091508 | 24 | 202 | 0.0 | 0.0 | 0.00 | 0.00 | 0.00 | 95 | 1022.6 |
| 20260906091004 | 24 | 202 | 1.6 | 1.6 | 0.00 | 0.00 | 0.00 | 96 | 1022.7 |
| 20260906090459 | 24 | 202 | 0.0 | 1.6 | 0.00 | 0.00 | 0.00 | 96 | 1022.7 |
| 20260906085959 | 24 | 202 | 1.6 | 1.6 | 0.00 | 0.00 | 0.00 | 95 | 1022.7 |
| 20260906085458 | 24 | 201 | 0.0 | 0.0 | 0.00 | 0.00 | 0.00 | 95 | 1022.7 |
| 20260906084957 | 25 | 200 | 0.0 | 1.6 | 0.00 | 0.00 | 0.00 | 95 | 1022.7 |
| 20260906084452 | 25 | 201 | 1.6 | 1.6 | 0.00 | 0.00 | 0.00 | 95 | 1022.6 |
| 20260906083951 | 25 | 198 | 0.0 | 1.6 | 0.00 | 0.00 | 0.00 | 94 | 1022.7 |
| 20260906083447 | 25 | 203 | 0.0 | 0.0 | 0.00 | 0.00 | 0.00 | 94 | 1022.5 |
| 20260906082946 | 25 | 203 | 0.0 | 0.0 | 0.00 | 0.00 | 0.00 | 94 | 1022.5 |
| 20260906082442 | 25 | 201 | 1.6 | 1.6 | 0.00 | 0.00 | 0.00 | 95 | 1022.6 |
| 20260906081937 | 25 | 200 | 1.6 | 1.6 | 0.00 | 0.00 | 0.00 | 95 | 1022.5 |
| 20260906081432 | 25 | 200 | 1.6 | 1.6 | 0.00 | 0.00 | 0.00 | 94 | 1022.6 |
| 20260906080929 | 25 | 200 | 0.0 | 0.0 | 0.00 | 0.00 | 0.00 | 94 | 1022.8 |
| 20260906080425 | 25 | 200 | 0.0 | 0.0 | 0.00 | 0.00 | 0.00 | 93 | 1022.8 |
| 20260906075925 | 25 | 200 | 0.0 | 1.6 | 0.00 | 0.00 | 0.00 | 93 | 1022.9 |
| 20260906075420 | 25 | 200 | 0.0 | 1.6 | 0.00 | 0.00 | 0.00 | 93 | 1022.6 |
| 20260906074915 | 25 | 200 | 0.0 | 0.0 | 0.00 | 0.00 | 0.00 | 93 | 1022.8 |
| 20260906074415 | 25 | 200 | 0.0 | 0.0 | 0.00 | 0.00 | 0.00 | 93 | 1022.7 |
| 20260906073914 | 25 | 200 | 1.6 | 1.6 | 0.00 | 0.00 | 0.00 | 93 | 1022.6 |
| 20260906073409 | 25 | 199 | 0.0 | 0.0 | 0.00 | 0.00 | 0.00 | 93 | 1023.0 |
| 20260906072905 | 25 | 209 | 0.0 | 0.0 | 0.00 | 0.00 | 0.00 | 93 | 1022.8 |
| 20260906072400 | 25 | 209 | 1.6 | 1.6 | 0.00 | 0.00 | 0.00 | 93 | 1022.6 |
| 20260906071856 | 25 | 209 | 1.6 | 1.6 | 0.00 | 0.00 | 0.00 | 93 | 1022.6 |
| 20260906071351 | 25 | 208 | 1.6 | 1.6 | 0.00 | 0.00 | 0.00 | 93 | 1022.8 |
| 20260906070847 | 25 | 206 | 3.2 | 3.2 | 0.00 | 0.00 | 0.00 | 93 | 1022.6 |
| 20260906070343 | 25 | 193 | 0.0 | 3.2 | 0.00 | 0.00 | 0.00 | 93 | 1022.8 |
| 20260906065838 | 25 | 205 | 0.0 | 1.6 | 0.00 | 0.00 | 0.00 | 93 | 1022.8 |
| 20260906065332 | 25 | 207 | 1.6 | 1.6 | 0.00 | 0.00 | 0.00 | 93 | 1023.0 |
| 20260906064829 | 25 | 218 | 3.2 | 3.2 | 0.00 | 0.00 | 0.00 | 93 | 1022.9 |
| 20260906064325 | 25 | 198 | 1.6 | 1.6 | 0.00 | 0.00 | 0.00 | 93 | 1023.0 |
| 20260906063824 | 25 | 196 | 0.0 | 1.6 | 0.00 | 0.00 | 0.00 | 93 | 1023.0 |
| 20260906063320 | 25 | 210 | 0.0 | 0.0 | 0.00 | 0.00 | 0.00 | 93 | 1023.1 |
| 20260906062815 | 25 | 210 | 0.0 | 0.0 | 0.00 | 0.00 | 0.00 | 93 | 1023.2 |
| 20260906062314 | 25 | 209 | 0.0 | 0.0 | 0.00 | 0.00 | 0.00 | 93 | 1023.4 |
| 20260906061810 | 25 | 209 | 0.0 | 0.0 | 0.00 | 0.00 | 0.00 | 93 | 1023.1 |
| 20260906061307 | 25 | 209 | 0.0 | 0.0 | 0.00 | 0.00 | 0.00 | 93 | 1023.4 |
| 20260906060807 | 25 | 210 | 0.0 | 3.2 | 0.00 | 0.00 | 0.00 | 93 | 1023.3 |
| 20260906060304 | 25 | 208 | 0.0 | 1.6 | 0.00 | 0.00 | 0.00 | 92 | 1023.2 |
| 20260906055800 | 25 | 208 | 1.6 | 1.6 | 0.00 | 0.00 | 0.00 | 92 | 1023.4 |
| 20260906055255 | 25 | 203 | 0.0 | 1.6 | 0.00 | 0.00 | 0.00 | 91 | 1023.4 |
| 20260906054750 | 25 | 205 | 1.6 | 3.2 | 0.00 | 0.00 | 0.00 | 91 | 1023.2 |
| 20260906054246 | 25 | 210 | 1.6 | 3.2 | 0.00 | 0.00 | 0.00 | 91 | 1023.1 |
| 20260906053742 | 25 | 199 | 1.6 | 1.6 | 0.00 | 0.00 | 0.00 | 91 | 1023.1 |
| 20260906053238 | 25 | 208 | 1.6 | 3.2 | 0.00 | 0.00 | 0.00 | 91 | 1023.3 |
| 20260906052732 | 25 | 212 | 0.0 | 3.2 | 0.00 | 0.00 | 0.00 | 91 | 1023.3 |
| 20260906052229 | 25 | 213 | 0.0 | 3.2 | 0.00 | 0.00 | 0.00 | 90 | 1023.5 |
| 20260906051726 | 25 | 210 | 0.0 | 3.2 | 0.00 | 0.00 | 0.00 | 90 | 1023.2 |
| 20260906051225 | 25 | 210 | 1.6 | 3.2 | 0.00 | 0.00 | 0.00 | 90 | 1023.1 |
| 20260906050720 | 25 | 206 | 3.2 | 3.2 | 0.00 | 0.00 | 0.00 | 90 | 1023.2 |
| 20260906050216 | 25 | 207 | 1.6 | 4.8 | 0.00 | 0.00 | 0.00 | 90 | 1023.1 |
| 20260906045714 | 26 | 213 | 1.6 | 3.2 | 0.00 | 0.00 | 0.00 | 89 | 1023.0 |
| 20260906045209 | 26 | 213 | 0.0 | 0.0 | 0.00 | 0.00 | 0.00 | 89 | 1023.2 |
| 20260906044705 | 26 | 213 | 1.6 | 3.2 | 0.00 | 0.00 | 0.00 | 89 | 1023.3 |
| 20260906044200 | 26 | 213 | 3.2 | 3.2 | 0.00 | 0.00 | 0.00 | 89 | 1023.4 |
| 20260906043656 | 26 | 215 | 3.2 | 4.8 | 0.00 | 0.00 | 0.00 | 89 | 1023.4 |
| 20260906043151 | 26 | 212 | 1.6 | 1.6 | 0.00 | 0.00 | 0.00 | 89 | 1023.5 |
| 20260906042651 | 26 | 211 | 1.6 | 1.6 | 0.00 | 0.00 | 0.00 | 89 | 1023.4 |
| 20260906042150 | 26 | 211 | 1.6 | 3.2 | 0.00 | 0.00 | 0.00 | 88 | 1023.5 |
| 20260906041647 | 26 | 210 | 0.0 | 1.6 | 0.00 | 0.00 | 0.00 | 88 | 1023.5 |
| 20260906041141 | 26 | 210 | 0.0 | 3.2 | 0.00 | 0.00 | 0.00 | 88 | 1023.4 |
| 20260906040637 | 26 | 209 | 0.0 | 1.6 | 0.00 | 0.00 | 0.00 | 88 | 1023.5 |
| 20260906040132 | 26 | 209 | 0.0 | 0.0 | 0.00 | 0.00 | 0.00 | 88 | 1023.7 |
| 20260906035627 | 26 | 209 | 0.0 | 1.6 | 0.00 | 0.00 | 0.00 | 87 | 1023.6 |
| 20260906035123 | 26 | 209 | 0.0 | 1.6 | 0.00 | 0.00 | 0.00 | 88 | 1023.7 |
| 20260906034623 | 26 | 208 | 0.0 | 1.6 | 0.00 | 0.00 | 0.00 | 87 | 1023.8 |
| 20260906034118 | 26 | 208 | 0.0 | 0.0 | 0.00 | 0.00 | 0.00 | 87 | 1023.9 |
| 20260906033614 | 26 | 208 | 1.6 | 3.2 | 0.00 | 0.00 | 0.00 | 87 | 1024.1 |
| 20260906033109 | 26 | 208 | 1.6 | 1.6 | 0.00 | 0.00 | 0.00 | 87 | 1024.0 |
| 20260906032606 | 26 | 208 | 0.0 | 0.0 | 0.00 | 0.00 | 0.00 | 87 | 1024.1 |
| 20260906032105 | 26 | 208 | 0.0 | 0.0 | 0.00 | 0.00 | 0.00 | 86 | 1024.2 |
| 20260906031601 | 26 | 208 | 0.0 | 0.0 | 0.00 | 0.00 | 0.00 | 85 | 1024.3 |
| 20260906031056 | 26 | 208 | 0.0 | 1.6 | 0.00 | 0.00 | 0.00 | 85 | 1024.2 |
| 20260906030555 | 26 | 207 | 0.0 | 1.6 | 0.00 | 0.00 | 0.00 | 86 | 1024.0 |
| 20260906030056 | 26 | 206 | 1.6 | 1.6 | 0.00 | 0.00 | 0.00 | 86 | 1024.0 |
| 20260906025555 | 26 | 205 | 0.0 | 0.0 | 0.00 | 0.00 | 0.00 | 86 | 1024.0 |
| 20260906025054 | 26 | 205 | 0.0 | 0.0 | 0.00 | 0.00 | 0.00 | 86 | 1023.9 |
| 20260906024549 | 27 | 205 | 0.0 | 1.6 | 0.00 | 0.00 | 0.00 | 86 | 1024.0 |
| 20260906024049 | 27 | 205 | 0.0 | 0.0 | 0.00 | 0.00 | 0.00 | 85 | 1024.0 |
| 20260906023545 | 27 | 205 | 0.0 | 1.6 | 0.00 | 0.00 | 0.00 | 85 | 1024.2 |
| 20260906023040 | 27 | 206 | 1.6 | 1.6 | 0.00 | 0.00 | 0.00 | 84 | 1024.1 |
| 20260906022535 | 27 | 205 | 0.0 | 0.0 | 0.00 | 0.00 | 0.00 | 84 | 1024.1 |
| 20260906022030 | 27 | 205 | 0.0 | 1.6 | 0.00 | 0.00 | 0.00 | 83 | 1024.3 |
| 20260906021527 | 27 | 205 | 0.0 | 1.6 | 0.00 | 0.00 | 0.00 | 83 | 1024.1 |
| 20260906021025 | 27 | 203 | 1.6 | 1.6 | 0.00 | 0.00 | 0.00 | 83 | 1024.1 |
| 20260906020525 | 27 | 234 | 4.8 | 4.8 | 0.00 | 0.00 | 0.00 | 82 | 1024.1 |
| 20260906020025 | 27 | 207 | 0.0 | 3.2 | 0.00 | 0.00 | 0.00 | 83 | 1024.1 |
| 20260906015524 | 27 | 203 | 0.0 | 1.6 | 0.00 | 0.00 | 0.00 | 83 | 1024.0 |
| 20260906015024 | 27 | 205 | 0.0 | 3.2 | 0.00 | 0.00 | 0.00 | 83 | 1023.9 |
| 20260906014519 | 27 | 207 | 1.6 | 3.2 | 0.00 | 0.00 | 0.00 | 83 | 1023.6 |
| 20260906014014 | 27 | 208 | 1.6 | 4.8 | 0.00 | 0.00 | 0.00 | 82 | 1023.5 |
| 20260906013509 | 27 | 207 | 0.0 | 3.2 | 0.00 | 0.00 | 0.00 | 82 | 1023.4 |
| 20260906013005 | 28 | 205 | 0.0 | 3.2 | 0.00 | 0.00 | 0.00 | 82 | 1023.3 |
| 20260906012500 | 28 | 208 | 3.2 | 4.8 | 0.00 | 0.00 | 0.00 | 81 | 1023.2 |
| 20260906011959 | 28 | 207 | 3.2 | 9.7 | 0.00 | 0.00 | 0.00 | 81 | 1023.0 |
| 20260906011455 | 28 | 213 | 1.6 | 4.8 | 0.00 | 0.00 | 0.00 | 81 | 1022.8 |
| 20260906010950 | 28 | 195 | 1.6 | 3.2 | 0.00 | 0.00 | 0.00 | 81 | 1022.8 |
| 20260906010446 | 28 | 199 | 1.6 | 3.2 | 0.00 | 0.00 | 0.00 | 81 | 1022.7 |
| 20260906005942 | 27 | 202 | 0.0 | 3.2 | 0.00 | 0.00 | 0.00 | 83 | 1022.8 |
| 20260906005441 | 27 | 194 | 0.0 | 1.6 | 0.00 | 0.00 | 0.00 | 84 | 1022.5 |
| 20260906004940 | 27 | 199 | 1.6 | 1.6 | 0.00 | 0.00 | 0.00 | 86 | 1022.6 |
| 20260906004434 | 27 | 206 | 0.0 | 0.0 | 0.00 | 0.00 | 0.00 | 84 | 1022.4 |
| 20260906003930 | 27 | 206 | 0.0 | 0.0 | 0.00 | 0.00 | 0.00 | 83 | 1022.4 |
| 20260906003430 | 27 | 206 | 0.0 | 0.0 | 0.00 | 0.00 | 0.00 | 83 | 1022.3 |
| 20260906002925 | 27 | 206 | 0.0 | 0.0 | 0.00 | 0.00 | 0.00 | 82 | 1022.2 |
| 20260906002425 | 28 | 206 | 0.0 | 0.0 | 0.00 | 0.00 | 0.00 | 82 | 1022.2 |
| 20260906001920 | 28 | 206 | 0.0 | 0.0 | 0.00 | 0.00 | 0.00 | 81 | 1022.2 |
| 20260906001416 | 28 | 206 | 0.0 | 0.0 | 0.00 | 0.00 | 0.00 | 80 | 1022.0 |
| 20260906000911 | 28 | 205 | 0.0 | 0.0 | 0.00 | 0.00 | 0.00 | 78 | 1022.1 |
| 20260906000406 | 28 | 206 | 0.0 | 0.0 | 0.00 | 0.00 | 0.00 | 77 | 1022.0 |
| 20260905235901 | 29 | 206 | 0.0 | 0.0 | 0.00 | 0.00 | 0.00 | 75 | 1021.9 |
| 20260905235401 | 30 | 206 | 0.0 | 0.0 | 0.00 | 0.00 | 0.00 | 74 | 1022.0 |
| 20260905234856 | 30 | 206 | 0.0 | 0.0 | 0.00 | 0.00 | 0.00 | 72 | 1022.0 |
| 20260905234351 | 30 | 206 | 0.0 | 0.0 | 0.00 | 0.00 | 0.00 | 71 | 1022.0 |
| 20260905233846 | 30 | 206 | 0.0 | 0.0 | 0.00 | 0.00 | 0.00 | 70 | 1022.1 |
| 20260905233341 | 30 | 206 | 0.0 | 0.0 | 0.00 | 0.00 | 0.00 | 69 | 1022.2 |
| 20260905232840 | 31 | 206 | 0.0 | 1.6 | 0.00 | 0.00 | 0.00 | 68 | 1022.1 |
| 20260905232337 | 31 | 206 | 0.0 | 0.0 | 0.00 | 0.00 | 0.00 | 67 | 1022.1 |
| 20260905231832 | 31 | 205 | 0.0 | 1.6 | 0.00 | 0.00 | 0.00 | 66 | 1022.4 |
| 20260905231327 | 31 | 204 | 0.0 | 0.0 | 0.00 | 0.00 | 0.00 | 66 | 1022.3 |
| 20260905230824 | 31 | 204 | 1.6 | 1.6 | 0.00 | 0.00 | 0.00 | 66 | 1022.5 |
| 20260905230321 | 31 | 202 | 3.2 | 3.2 | 0.00 | 0.00 | 0.00 | 66 | 1022.5 |
| 20260905225821 | 31 | 227 | 3.2 | 9.7 | 0.00 | 0.00 | 0.00 | 65 | 1022.4 |
| 20260905225316 | 31 | 217 | 3.2 | 3.2 | 0.00 | 0.00 | 0.00 | 64 | 1022.5 |
| 20260905224816 | 32 | 216 | 3.2 | 4.8 | 0.00 | 0.00 | 0.00 | 63 | 1022.3 |
| 20260905224311 | 32 | 201 | 1.6 | 3.2 | 0.00 | 0.00 | 0.00 | 62 | 1022.7 |
| 20260905223806 | 33 | 219 | 3.2 | 4.8 | 0.00 | 0.00 | 0.00 | 59 | 1022.6 |
| 20260905223304 | 34 | 208 | 3.2 | 4.8 | 0.00 | 0.00 | 0.00 | 58 | 1022.6 |
| 20260905222759 | 33 | 205 | 1.6 | 1.6 | 0.00 | 0.00 | 0.00 | 57 | 1022.4 |
| 20260905222257 | 34 | 195 | 1.6 | 3.2 | 0.00 | 0.00 | 0.00 | 58 | 1022.5 |
| 20260905221754 | 34 | 196 | 1.6 | 6.4 | 0.00 | 0.00 | 0.00 | 57 | 1022.7 |
| 20260905221250 | 33 | 203 | 3.2 | 3.2 | 0.00 | 0.00 | 0.00 | 57 | 1022.6 |
| 20260905220746 | 33 | 207 | 3.2 | 4.8 | 0.00 | 0.00 | 0.00 | 58 | 1022.7 |
| 20260905220242 | 33 | 167 | 6.4 | 9.7 | 0.00 | 0.00 | 0.00 | 57 | 1022.8 |
| 20260905215741 | 33 | 206 | 3.2 | 6.4 | 0.00 | 0.00 | 0.00 | 58 | 1022.9 |
| 20260905215238 | 33 | 196 | 1.6 | 4.8 | 0.00 | 0.00 | 0.00 | 57 | 1022.8 |
| 20260905214733 | 33 | 200 | 3.2 | 4.8 | 0.00 | 0.00 | 0.00 | 57 | 1022.7 |
| 20260905214229 | 33 | 202 | 3.2 | 4.8 | 0.00 | 0.00 | 0.00 | 55 | 1022.8 |
| 20260905213724 | 33 | 237 | 6.4 | 6.4 | 0.00 | 0.00 | 0.00 | 56 | 1022.8 |
| 20260905213220 | 33 | 271 | 6.4 | 9.7 | 0.00 | 0.00 | 0.00 | 55 | 1022.8 |
| 20260905212715 | 33 | 227 | 3.2 | 3.2 | 0.00 | 0.00 | 0.00 | 56 | 1022.9 |
| 20260905212214 | 33 | 250 | 6.4 | 11.3 | 0.00 | 0.00 | 0.00 | 55 | 1022.9 |
| 20260905211714 | 33 | 206 | 3.2 | 6.4 | 0.00 | 0.00 | 0.00 | 57 | 1022.7 |
| 20260905211209 | 33 | 213 | 3.2 | 6.4 | 0.00 | 0.00 | 0.00 | 57 | 1023.0 |
| 20260905210706 | 33 | 224 | 8.0 | 14.5 | 0.00 | 0.00 | 0.00 | 56 | 1022.9 |
| 20260905210205 | 35 | 202 | 1.6 | 11.3 | 0.00 | 0.00 | 0.00 | 57 | 1023.0 |
| 20260905205704 | 35 | 227 | 4.8 | 4.8 | 0.00 | 0.00 | 0.00 | 54 | 1023.0 |
| 20260905205205 | 34 | 179 | 1.6 | 4.8 | 0.00 | 0.00 | 0.00 | 56 | 1022.8 |
| 20260905204704 | 34 | 220 | 3.2 | 6.4 | 0.00 | 0.00 | 0.00 | 56 | 1023.0 |
| 20260905204200 | 34 | 215 | 4.8 | 6.4 | 0.00 | 0.00 | 0.00 | 58 | 1022.8 |
| 20260905203654 | 34 | 203 | 0.0 | 6.4 | 0.00 | 0.00 | 0.00 | 57 | 1022.8 |
| 20260905203150 | 34 | 217 | 4.8 | 6.4 | 0.00 | 0.00 | 0.00 | 56 | 1023.0 |
| 20260905202645 | 33 | 194 | 1.6 | 4.8 | 0.00 | 0.00 | 0.00 | 56 | 1023.0 |
| 20260905202140 | 33 | 185 | 1.6 | 4.8 | 0.00 | 0.00 | 0.00 | 61 | 1023.0 |
| 20260905201636 | 33 | 209 | 3.2 | 9.7 | 0.00 | 0.00 | 0.00 | 57 | 1023.1 |
| 20260905201135 | 32 | 225 | 1.6 | 1.6 | 0.00 | 0.00 | 0.00 | 60 | 1023.1 |
| 20260905200631 | 33 | 238 | 3.2 | 11.3 | 0.00 | 0.00 | 0.00 | 57 | 1023.2 |
| 20260905200127 | 33 | 251 | 9.7 | 12.9 | 0.00 | 0.00 | 0.00 | 57 | 1023.3 |
| 20260905195625 | 33 | 204 | 3.2 | 9.7 | 0.00 | 0.00 | 0.00 | 59 | 1023.4 |
| 20260905195120 | 34 | 232 | 4.8 | 6.4 | 0.00 | 0.00 | 0.00 | 57 | 1023.2 |
| 20260905194620 | 34 | 197 | 1.6 | 4.8 | 0.00 | 0.00 | 0.00 | 58 | 1023.4 |
| 20260905194120 | 33 | 202 | 0.0 | 6.4 | 0.00 | 0.00 | 0.00 | 59 | 1023.6 |
| 20260905193615 | 33 | 239 | 8.0 | 12.9 | 0.00 | 0.00 | 0.00 | 56 | 1023.5 |
| 20260905193109 | 33 | 169 | 1.6 | 3.2 | 0.00 | 0.00 | 0.00 | 59 | 1023.5 |
| 20260905192605 | 33 | 195 | 0.0 | 1.6 | 0.00 | 0.00 | 0.00 | 59 | 1023.4 |
| 20260905192101 | 33 | 223 | 4.8 | 9.7 | 0.00 | 0.00 | 0.00 | 60 | 1023.4 |
| 20260905191600 | 34 | 203 | 3.2 | 6.4 | 0.00 | 0.00 | 0.00 | 56 | 1023.6 |
| 20260905191059 | 33 | 192 | 0.0 | 4.8 | 0.00 | 0.00 | 0.00 | 58 | 1023.7 |
| 20260905190557 | 33 | 235 | 4.8 | 9.7 | 0.00 | 0.00 | 0.00 | 57 | 1023.9 |
| 20260905190056 | 33 | 202 | 3.2 | 6.4 | 0.00 | 0.00 | 0.00 | 60 | 1024.0 |
| 20260905185555 | 34 | 212 | 4.8 | 9.7 | 0.00 | 0.00 | 0.00 | 56 | 1024.0 |
| 20260905185050 | 33 | 197 | 1.6 | 4.8 | 0.00 | 0.00 | 0.00 | 59 | 1024.0 |
| 20260905184545 | 33 | 204 | 1.6 | 4.8 | 0.00 | 0.00 | 0.00 | 59 | 1024.0 |
| 20260905184044 | 33 | 225 | 8.0 | 9.7 | 0.00 | 0.00 | 0.00 | 60 | 1024.3 |
| 20260905183543 | 33 | 243 | 3.2 | 3.2 | 0.00 | 0.00 | 0.00 | 58 | 1024.3 |
| 20260905183039 | 33 | 274 | 9.7 | 11.3 | 0.00 | 0.00 | 0.00 | 57 | 1024.4 |
| 20260905182539 | 32 | 179 | 3.2 | 6.4 | 0.00 | 0.00 | 0.00 | 60 | 1024.3 |
| 20260905182039 | 32 | 197 | 3.2 | 9.7 | 0.00 | 0.00 | 0.00 | 62 | 1024.5 |
| 20260905181539 | 31 | 247 | 6.4 | 9.7 | 0.00 | 0.00 | 0.00 | 61 | 1024.7 |
| 20260905181033 | 32 | 206 | 3.2 | 3.2 | 0.00 | 0.00 | 0.00 | 61 | 1024.7 |
| 20260905180533 | 32 | 206 | 3.2 | 11.3 | 0.00 | 0.00 | 0.00 | 60 | 1024.8 |
| 20260905180029 | 32 | 198 | 0.0 | 4.8 | 0.00 | 0.00 | 0.00 | 61 | 1024.7 |
| 20260905175527 | 32 | 205 | 4.8 | 11.3 | 0.00 | 0.00 | 0.00 | 61 | 1024.8 |
| 20260905175023 | 32 | 202 | 3.2 | 6.4 | 0.00 | 0.00 | 0.00 | 60 | 1024.9 |
| 20260905174519 | 32 | 229 | 4.8 | 6.4 | 0.00 | 0.00 | 0.00 | 58 | 1024.9 |
| 20260905174014 | 32 | 209 | 3.2 | 9.7 | 0.00 | 0.00 | 0.00 | 61 | 1025.0 |
| 20260905173510 | 32 | 223 | 3.2 | 4.8 | 0.00 | 0.00 | 0.00 | 61 | 1025.3 |
| 20260905173006 | 32 | 206 | 1.6 | 1.6 | 0.00 | 0.00 | 0.00 | 60 | 1025.2 |
| 20260905172503 | 32 | 200 | 3.2 | 6.4 | 0.00 | 0.00 | 0.00 | 59 | 1025.2 |
| 20260905171959 | 32 | 197 | 3.2 | 4.8 | 0.00 | 0.00 | 0.00 | 62 | 1025.1 |
| 20260905171456 | 32 | 207 | 3.2 | 9.7 | 0.00 | 0.00 | 0.00 | 60 | 1025.1 |
| 20260905170952 | 32 | 196 | 0.0 | 1.6 | 0.00 | 0.00 | 0.00 | 59 | 1025.5 |
| 20260905170448 | 32 | 190 | 0.0 | 3.2 | 0.00 | 0.00 | 0.00 | 63 | 1025.5 |
| 20260905165948 | 31 | 203 | 3.2 | 3.2 | 0.00 | 0.00 | 0.00 | 64 | 1025.4 |
| 20260905165443 | 31 | 202 | 0.0 | 1.6 | 0.00 | 0.00 | 0.00 | 65 | 1025.6 |
| 20260905164938 | 31 | 219 | 3.2 | 3.2 | 0.00 | 0.00 | 0.00 | 63 | 1025.5 |
| 20260905164438 | 31 | 201 | 0.0 | 3.2 | 0.00 | 0.00 | 0.00 | 64 | 1025.8 |
| 20260905163932 | 32 | 41 | 3.2 | 6.4 | 0.00 | 0.00 | 0.00 | 64 | 1025.9 |
| 20260905163429 | 31 | 214 | 3.2 | 4.8 | 0.00 | 0.00 | 0.00 | 70 | 1026.0 |
| 20260905162925 | 30 | 193 | 0.0 | 1.6 | 0.00 | 0.00 | 0.00 | 69 | 1026.0 |
| 20260905162420 | 31 | 209 | 1.6 | 6.4 | 0.00 | 0.00 | 0.00 | 67 | 1026.1 |
| 20260905161915 | 31 | 205 | 3.2 | 4.8 | 0.00 | 0.00 | 0.00 | 67 | 1026.3 |
| 20260905161414 | 30 | 199 | 0.0 | 3.2 | 0.00 | 0.00 | 0.00 | 73 | 1026.1 |
| 20260905160912 | 30 | 202 | 3.2 | 9.7 | 0.00 | 0.00 | 0.00 | 72 | 1026.4 |
| 20260905160407 | 31 | 203 | 3.2 | 4.8 | 0.00 | 0.00 | 0.00 | 69 | 1026.0 |
| 20260905155907 | 30 | 190 | 0.0 | 3.2 | 0.00 | 0.00 | 0.00 | 72 | 1026.0 |
| 20260905155407 | 30 | 210 | 4.8 | 9.7 | 0.00 | 0.00 | 0.00 | 72 | 1026.4 |
| 20260905154905 | 30 | 208 | 4.8 | 6.4 | 0.00 | 0.00 | 0.00 | 74 | 1026.3 |
| 20260905154401 | 30 | 214 | 3.2 | 4.8 | 0.00 | 0.00 | 0.00 | 72 | 1026.2 |
| 20260905153856 | 30 | 200 | 1.6 | 6.4 | 0.00 | 0.00 | 0.00 | 74 | 1026.3 |
| 20260905153353 | 30 | 218 | 1.6 | 3.2 | 0.00 | 0.00 | 0.00 | 72 | 1026.4 |
| 20260905152852 | 30 | 88 | 1.6 | 3.2 | 0.00 | 0.00 | 0.00 | 72 | 1026.6 |
| 20260905152351 | 29 | 201 | 1.6 | 4.8 | 0.00 | 0.00 | 0.00 | 75 | 1026.6 |
| 20260905151847 | 30 | 195 | 0.0 | 3.2 | 0.00 | 0.00 | 0.00 | 70 | 1026.7 |
| 20260905151342 | 30 | 162 | 1.6 | 3.2 | 0.00 | 0.00 | 0.00 | 70 | 1026.6 |
| 20260905150842 | 30 | 200 | 1.6 | 4.8 | 0.00 | 0.00 | 0.00 | 74 | 1026.5 |
| 20260905150337 | 29 | 202 | 3.2 | 4.8 | 0.00 | 0.00 | 0.00 | 75 | 1026.6 |
| 20260905145835 | 29 | 201 | 1.6 | 3.2 | 0.00 | 0.00 | 0.00 | 74 | 1026.6 |
| 20260905145334 | 29 | 245 | 6.4 | 6.4 | 0.00 | 0.00 | 0.00 | 74 | 1026.6 |
| 20260905144833 | 28 | 219 | 3.2 | 3.2 | 0.00 | 0.00 | 0.00 | 78 | 1026.6 |
| 20260905144329 | 29 | 238 | 4.8 | 4.8 | 0.00 | 0.00 | 0.00 | 75 | 1026.4 |
| 20260905143827 | 29 | 199 | 1.6 | 3.2 | 0.00 | 0.00 | 0.00 | 75 | 1026.4 |
| 20260905143322 | 28 | 189 | 1.6 | 1.6 | 0.00 | 0.00 | 0.00 | 80 | 1026.5 |
| 20260905142821 | 28 | 214 | 4.8 | 4.8 | 0.00 | 0.00 | 0.00 | 76 | 1026.6 |
| 20260905142315 | 28 | 205 | 4.8 | 4.8 | 0.00 | 0.00 | 0.00 | 77 | 1026.5 |
| 20260905141812 | 28 | 201 | 4.8 | 4.8 | 0.00 | 0.00 | 0.00 | 80 | 1026.4 |
| 20260905141307 | 28 | 201 | 3.2 | 9.7 | 0.00 | 0.00 | 0.00 | 81 | 1026.5 |
| 20260905140802 | 27 | 218 | 3.2 | 6.4 | 0.00 | 0.00 | 0.00 | 81 | 1026.5 |
| 20260905140302 | 27 | 201 | 4.8 | 4.8 | 0.00 | 0.00 | 0.00 | 83 | 1026.4 |
| 20260905135801 | 27 | 252 | 4.8 | 4.8 | 0.00 | 0.00 | 0.00 | 83 | 1026.3 |
| 20260905135257 | 27 | 208 | 3.2 | 4.8 | 0.00 | 0.00 | 0.00 | 84 | 1026.4 |
| 20260905134757 | 26 | 201 | 1.6 | 3.2 | 0.00 | 0.00 | 0.00 | 85 | 1026.5 |
| 20260905134256 | 26 | 201 | 4.8 | 6.4 | 0.00 | 0.00 | 0.00 | 85 | 1026.5 |
| 20260905133751 | 27 | 204 | 6.4 | 6.4 | 0.00 | 0.00 | 0.00 | 82 | 1026.6 |
| 20260905133246 | 26 | 189 | 0.0 | 3.2 | 0.00 | 0.00 | 0.00 | 86 | 1026.7 |
| 20260905132745 | 26 | 204 | 6.4 | 6.4 | 0.00 | 0.00 | 0.00 | 86 | 1026.7 |
| 20260905132241 | 26 | 198 | 1.6 | 1.6 | 0.00 | 0.00 | 0.00 | 87 | 1026.7 |